Weather History for Kansas City, MO

Change the Weather History Date:

Thursday, June 27, 2013

  Actual Average Record
Temperature  
Mean Temperature 80 °F -  
Max Temperature 89 °F 84 °F 102 °F (2012)
Min Temperature 71 °F 66 °F 62 °F (2006)
Cooling Degree Days 15    
Growing Degree Days 30 (Base 50)    
Moisture  
Dew Point 69 °F    
Average Humidity 80    
Maximum Humidity 94    
Minimum Humidity 52    
Precipitation  
Precipitation 1.56 in - - ()
Sea Level Pressure  
Sea Level Pressure 29.93 in    
Wind  
Wind Speed 4 mph (NNE)    
Max Wind Speed 21 mph    
Max Gust Speed 36 mph    
Visibility 8 miles    
Events Fog , Rain , Thunderstorm    
Averages and records for this station are not official NWS values.
T = Trace of Precipitation, MM = Missing Value Source: NWS Daily Summary

Daily Weather History Graph

Daily Weather History Graph

Search for Another Location

Airport:

Trip Planner

Search our weather history database for the weather conditions in past years. The results will help you decide how hot, cold, wet, or windy it might be!

Date:

Astronomy

Jun. 27, 2013 Rise Set
Actual Time 5:54 AM CDT 8:48 PM CDT
Civil Twilight 5:22 AM CDT 9:20 PM CDT
Nautical Twilight 4:41 AM CDT 10:01 PM CDT
Astronomical Twilight 3:54 AM CDT 10:47 PM CDT
Moon 11:48 PM CDT (6/27) 10:54 AM CDT (6/27)
Length of Visible Light 15h 58m
Length of Day
14h 54m
Waning Gibbous, 76% of the Moon is Illuminated
Jun 27
Waning Gibbous
Jun 29
Last Quarter
Jul 8
New
Jul 15
First Quarter
Jul 22
Full

Hourly Weather History & Observations

Time (CDT) Temp. Heat Index Dew Point Humidity Pressure Visibility Wind Dir Wind Speed Gust Speed Precip Events Conditions
12:54 AM 75.9 °F - 68.0 °F 76% 29.86 in 10.0 mi Calm Calm - N/A   Clear
1:54 AM 75.0 °F - 69.1 °F 82% 29.86 in 10.0 mi Calm Calm - N/A   Clear
2:54 AM 73.9 °F - 68.0 °F 82% 29.87 in 10.0 mi Calm Calm - N/A   Clear
3:54 AM 73.0 °F - 66.9 °F 81% 29.88 in 10.0 mi SSW 3.5 mph - N/A   Clear
4:54 AM 73.0 °F - 68.0 °F 84% 29.89 in 10.0 mi Calm Calm - N/A   Clear
5:54 AM 72.0 °F - 66.9 °F 84% 29.90 in 10.0 mi Calm Calm - N/A   Clear
6:54 AM 75.0 °F - 68.0 °F 79% 29.90 in 10.0 mi Calm Calm - N/A   Clear
7:54 AM 79.0 °F - 70.0 °F 74% 29.90 in 6.0 mi Calm Calm - N/A   Haze
8:54 AM 84.9 °F 89.4 °F 70.0 °F 61% 29.90 in 10.0 mi Calm Calm - N/A   Clear
9:54 AM 89.1 °F 93.7 °F 69.1 °F 52% 29.91 in 10.0 mi South 4.6 mph - N/A   Clear
10:54 AM 86.0 °F 90.7 °F 70.0 °F 59% 29.94 in 10.0 mi NW 4.6 mph - N/A   Clear
11:09 AM 82.4 °F 85.4 °F 68.0 °F 62% 29.97 in 10.0 mi North 18.4 mph 31.1 mph N/A Thunderstorm Mostly Cloudy
11:31 AM 75.2 °F - 66.2 °F 73% 30.03 in 1.5 mi WNW 11.5 mph 33.4 mph 0.14 in Rain , Thunderstorm Heavy Thunderstorms and Rain
11:39 AM 73.4 °F - 69.8 °F 88% 30.03 in 0.8 mi ENE 6.9 mph - 0.24 in Rain , Thunderstorm Thunderstorms and Rain
11:42 AM 73.4 °F - 69.8 °F 88% 30.02 in 2.0 mi East 9.2 mph - 0.25 in Rain , Thunderstorm Light Thunderstorms and Rain
11:49 AM 73.4 °F - 69.8 °F 88% 30.02 in 8.0 mi East 6.9 mph - 0.26 in Rain , Thunderstorm Light Thunderstorms and Rain
11:54 AM 73.9 °F - 70.0 °F 87% 30.00 in 10.0 mi ENE 4.6 mph - 0.26 in Rain , Thunderstorm Light Thunderstorms and Rain
12:50 PM 75.2 °F - 69.8 °F 83% 29.99 in 10.0 mi ENE 5.8 mph - 0.05 in Rain Light Rain
12:54 PM 75.0 °F - 69.1 °F 82% 29.97 in 10.0 mi ENE 4.6 mph - 0.05 in Rain Light Rain
1:54 PM 78.1 °F - 70.0 °F 76% 29.93 in 10.0 mi Calm Calm - 0.02 in   Mostly Cloudy
2:54 PM 82.9 °F 87.0 °F 70.0 °F 65% 29.92 in 10.0 mi ENE 4.6 mph - N/A   Clear
3:54 PM 82.0 °F 86.3 °F 71.1 °F 69% 29.88 in 10.0 mi South 5.8 mph - N/A   Clear
4:54 PM 84.0 °F 89.0 °F 71.1 °F 65% 29.88 in 10.0 mi NE 4.6 mph - N/A   Clear
5:54 PM 82.0 °F 86.7 °F 72.0 °F 71% 29.86 in 10.0 mi NE 5.8 mph - N/A   Partly Cloudy
6:54 PM 82.0 °F 85.5 °F 69.1 °F 65% 29.81 in 10.0 mi West 3.5 mph - 0.00 in   Clear
7:54 PM 78.1 °F - 70.0 °F 76% 29.88 in 10.0 mi North 15.0 mph 28.8 mph N/A Thunderstorm Thunderstorm
8:23 PM 75.2 °F - 69.8 °F 83% 29.89 in 1.8 mi ENE 9.2 mph 25.3 mph 0.30 in Rain , Thunderstorm Light Thunderstorms and Rain
8:35 PM 75.2 °F - 69.8 °F 83% 29.89 in 3.0 mi NE 11.5 mph - 0.40 in Rain , Thunderstorm Light Thunderstorms and Rain
8:54 PM 75.0 °F - 70.0 °F 84% 29.87 in 10.0 mi NE 4.6 mph - 0.40 in   Partly Cloudy
9:54 PM 75.0 °F - 71.1 °F 87% 29.86 in 10.0 mi NE 4.6 mph - 0.00 in   Partly Cloudy
10:36 PM 73.4 °F - 71.6 °F 94% 29.90 in 10.0 mi Calm Calm - N/A Thunderstorm Mostly Cloudy
10:54 PM 75.0 °F - 71.1 °F 87% 29.94 in 4.0 mi WNW 17.3 mph 26.5 mph 0.03 in Thunderstorm Overcast
10:58 PM 75.2 °F - 71.6 °F 89% 30.01 in 1.8 mi WNW 20.7 mph 35.7 mph 0.16 in Rain , Thunderstorm Heavy Thunderstorms and Rain
11:04 PM 73.4 °F - 69.8 °F 88% 30.00 in 0.8 mi WNW 9.2 mph 35.7 mph 0.44 in Rain , Thunderstorm Heavy Thunderstorms and Rain
11:07 PM 73.4 °F - 69.8 °F 88% 29.99 in 0.5 mi West 6.9 mph 35.7 mph 0.60 in Fog , Rain , Thunderstorm Heavy Thunderstorms and Rain
11:09 PM 71.6 °F - 68.0 °F 88% 29.98 in 0.8 mi West 5.8 mph 20.7 mph 0.62 in Rain , Thunderstorm Heavy Thunderstorms and Rain
11:19 PM 71.6 °F - 68.0 °F 88% 29.95 in 2.0 mi SE 5.8 mph - 0.71 in Rain , Thunderstorm Heavy Thunderstorms and Rain
11:33 PM 71.6 °F - 69.8 °F 94% 29.94 in 5.0 mi NNE 8.1 mph - 0.80 in Rain , Thunderstorm Light Thunderstorms and Rain
11:47 PM 71.6 °F - 69.8 °F 94% 29.95 in 10.0 mi ENE 6.9 mph - 0.80 in Thunderstorm Overcast
11:54 PM 72.0 °F - 69.1 °F 91% 29.92 in 10.0 mi NE 3.5 mph - 0.80 in Thunderstorm Mostly Cloudy